Terug naar catalogus

FENGYUN 1C DEB

ActiefPO
NORAD 30339·DEBRIS·🇨🇳 China

Gelanceerd May 10, 1999 vanaf Taiyuan Satellite Launch Center

Loading…

Volgende Passages (komende 24 uur)

TLE

VersSource: Space-Track

Epoch: Sep 14, 2026, 19:59 UTC

1 30339U 99025ABA 26257.83267877  .00004641  00000-0  14310-2 0  9999
2 30339  98.9781  22.5237 0018301 343.9939 176.6632 14.41822357 13985

Volg FENGYUN 1C DEB in realtime met AllMySat

Download on the App Store